STARLINK-1106 (44923 NORAD) Tracking and Keplerian Element Data

This shows tracking and keplerian element data for the satellite.

Feedback or suggestion? Click here.




ElementValue
Catalog44923
NameSTARLINK-1106
Epoch Orbit2884
Epoch Day197.25001157
Epoch Year2020
RAAN249.7595
Inclination52.9986
Eccentricity0.0001506
Argument of Perigee122.8105
Mean Anonmoly169.4503
Mean Motion15.05594666
Decay Rate-0.00023573
L11 44923U 20001K 20197.25001157 -.00023573 00000-0 -16034-2 0 9993
L22 44923 52.9986 249.7595 0001506 122.8105 169.4503 15.05594666 28842

Live tracking and technical data element details for STARLINK-1106 (NORAD 44923). STARLINK-1106 can be tracked NOW for your location showing map with azimuth and elevation plus other details from your city location.

Track the satellite on the map from your city or location and see movement details for azimuth, elevation, latitude, longitude, range, height, and movement on the map or in text.







IsCatalogInMostPopularTable: catalog: 44923, numindb: 50
Update: records affected: 1



GetName: 44923 STARLINK-1106

Hit Count: updated at: Thu, 16 Jul 2020 03:03:17 GMT